Houghton, MI

10:10 PM EDT on July 22, 2017 (GMT -0400)
Houghton County Memorial

Weather History for KCMX - December, 2013

Change the Weather History Date:

Sunday, December 8, 2013

  Actual Average Record
Temperature  
Mean Temperature 4 °F -  
Max Temperature 9 °F 26 °F 42 °F (2015)
Min Temperature -2 °F 16 °F -5 °F (1972)
Degree Days  
Heating Degree Days 62    
Moisture  
Dew Point -2 °F    
Average Humidity 77    
Maximum Humidity 87    
Minimum Humidity 58    
Precipitation  
Precipitation 0.00 in - - ()
Sea Level Pressure  
Sea Level Pressure 30.29 in    
Wind  
Wind Speed 5 mph (SW)    
Max Wind Speed 10 mph    
Max Gust Speed -    
Visibility 4 miles    
Events Snow    
Averages and records for this station are not official NWS values.
T = Trace of Precipitation, MM = Missing Value Source: NWS Daily Summary

Daily Weather History Graph

Daily Weather History Graph

Search for Another Location

Airport or City:

Trip Planner

Search our weather history database for the weather conditions in past years. The results will help you decide how hot, cold, wet, or windy it might be!

Date:

Astronomy

Dec. 08, 2013 Rise Set
Actual Time 8:27 AM EST 5:04 PM EST
Civil Twilight 7:52 AM EST 5:39 PM EST
Nautical Twilight 7:13 AM EST 6:18 PM EST
Astronomical Twilight 6:36 AM EST 6:55 PM EST
Moon 12:29 PM EST (12/8) No Moon Set
Length of Visible Light 9h 47m
Length of Day
8h 36m
Waxing Crescent, 40% of the Moon is Illuminated
Dec 8
Waxing Crescent
Dec 9
First Quarter
Dec 17
Full
Dec 25
Last Quarter
Jan 1
New

Hourly Weather History & Observations

Time (EST) Temp. Windchill Dew Point Humidity Pressure Visibility Wind Dir Wind Speed Gust Speed Precip Events Conditions
12:05 AM 3.2 °F -12.2 °F -2.2 °F 78% 30.39 in 1.0 mi WSW 10.4 mph - 0.00 in Snow Light Snow
12:13 AM 3.2 °F -11.3 °F -2.2 °F 78% 30.39 in 0.5 mi SW 9.2 mph - 0.00 in Snow Snow
12:25 AM 1.4 °F -11.3 °F -2.2 °F 85% 30.39 in 1.5 mi SSW 6.9 mph - 0.00 in Snow Light Snow
12:45 AM 1.4 °F -12.5 °F -2.2 °F 85% 30.40 in 0.8 mi SW 8.1 mph - 0.00 in Snow Light Snow
12:53 AM 1.9 °F -9.2 °F -4.0 °F 76% 30.48 in 1.0 mi SW 5.8 mph - 0.00 in Snow Light Snow
1:05 AM 1.4 °F -13.5 °F -4.0 °F 78% 30.40 in 1.0 mi SW 9.2 mph - 0.00 in Snow Light Snow
1:21 AM 1.4 °F -12.5 °F -4.0 °F 78% 30.39 in 1.0 mi SSW 8.1 mph - 0.00 in Snow Light Snow
1:53 AM -0.0 °F -11.6 °F -5.1 °F 79% 30.48 in 1.2 mi SW 5.8 mph - 0.00 in Snow Light Snow
2:19 AM 1.4 °F -9.9 °F -4.0 °F 78% 30.39 in 1.2 mi SW 5.8 mph - 0.00 in Snow Light Snow
2:35 AM 1.4 °F -6.2 °F -4.0 °F 78% 30.39 in 2.0 mi SW 3.5 mph - 0.00 in Snow Light Snow
2:53 AM 3.0 °F -12.5 °F -2.9 °F 76% 30.48 in 1.8 mi West 10.4 mph - 0.00 in Snow Light Snow
2:58 AM 3.2 °F -12.2 °F -2.2 °F 78% 30.39 in 2.0 mi West 10.4 mph - 0.00 in Snow Light Snow
3:08 AM 3.2 °F -10.3 °F -2.2 °F 78% 30.39 in 3.0 mi West 8.1 mph - 0.00 in Snow Light Snow
3:16 AM 3.2 °F -11.3 °F -2.2 °F 78% 30.39 in 2.0 mi West 9.2 mph - 0.00 in Snow Light Snow
3:45 AM -0.4 °F -12.0 °F -5.8 °F 78% 30.38 in 1.5 mi SSW 5.8 mph - 0.00 in Snow Light Snow
3:53 AM -0.0 °F - -5.1 °F 79% 30.48 in 1.2 mi Calm Calm - 0.00 in Snow Light Snow
4:03 AM -0.4 °F - -5.8 °F 78% 30.38 in 1.2 mi Calm Calm - 0.00 in Snow Light Snow
4:20 AM -0.4 °F -8.3 °F -5.8 °F 78% 30.37 in 1.5 mi SW 3.5 mph - 0.00 in Snow Light Snow
4:53 AM -0.9 °F -12.7 °F -7.1 °F 75% 30.46 in 1.2 mi SSW 5.8 mph - 0.00 in Snow Light Snow
5:25 AM -2.2 °F -15.6 °F -7.6 °F 78% 30.37 in 2.0 mi SSW 6.9 mph - 0.00 in Snow Light Snow
5:46 AM -2.2 °F -14.2 °F -7.6 °F 78% 30.37 in 1.8 mi SSW 5.8 mph - 0.00 in Snow Light Snow
5:53 AM -2.0 °F -12.2 °F -8.0 °F 76% 30.47 in 1.8 mi SSW 4.6 mph - 0.00 in Snow Light Snow
6:22 AM -2.2 °F -10.4 °F -7.6 °F 78% 30.37 in 3.0 mi South 3.5 mph - 0.00 in Snow Light Snow
6:42 AM -2.2 °F -12.5 °F -7.6 °F 78% 30.37 in 4.0 mi South 4.6 mph - 0.00 in Snow Light Snow
6:53 AM -2.0 °F -17.7 °F -7.1 °F 79% 30.48 in 5.0 mi SSW 9.2 mph - 0.00 in Snow Light Snow
7:05 AM -2.2 °F -15.6 °F -7.6 °F 78% 30.38 in 3.0 mi SSW 6.9 mph - 0.00 in Snow Light Snow
7:53 AM -0.9 °F -16.4 °F -7.1 °F 75% 30.48 in 7.0 mi SW 9.2 mph - 0.00 in   Overcast
8:53 AM -2.0 °F -13.9 °F -8.0 °F 76% 30.47 in 10.0 mi SW 5.8 mph - 0.00 in   Partly Cloudy
9:53 AM 3.0 °F -6.4 °F -6.0 °F 66% 30.45 in 10.0 mi SSW 4.6 mph - N/A   Clear
10:53 AM 1.9 °F - -5.1 °F 72% 30.47 in 10.0 mi Calm Calm - N/A   Clear
11:53 AM 3.9 °F -5.3 °F -5.1 °F 66% 30.45 in 10.0 mi SSW 4.6 mph - N/A   Mostly Cloudy
12:53 PM 5.0 °F -4.1 °F -6.0 °F 61% 30.40 in 10.0 mi South 4.6 mph - N/A   Overcast
1:53 PM 6.1 °F -5.6 °F -5.1 °F 60% 30.36 in 10.0 mi SSW 6.9 mph - N/A   Overcast
2:53 PM 7.0 °F - -5.1 °F 58% 30.34 in 10.0 mi Calm Calm - N/A   Overcast
3:53 PM 6.1 °F - -2.9 °F 67% 30.32 in 6.0 mi Calm Calm - N/A   Haze
4:00 PM 6.8 °F - -2.2 °F 67% 30.22 in 8.0 mi Calm Calm - N/A   Overcast
4:15 PM 6.8 °F - -2.2 °F 67% 30.22 in 10.0 mi Calm Calm - N/A   Overcast
4:53 PM 7.0 °F - -0.9 °F 70% 30.30 in 3.0 mi Calm Calm - 0.00 in Snow Light Snow
5:53 PM 7.0 °F - -0.0 °F 73% 30.28 in 5.0 mi Calm Calm - 0.00 in   Haze
6:53 PM 7.0 °F - 1.9 °F 80% 30.25 in 3.0 mi Calm Calm - 0.00 in Snow Light Snow
7:05 PM 6.8 °F - 1.4 °F 79% 30.16 in 2.5 mi Calm Calm - 0.00 in Snow Light Snow
7:27 PM 6.8 °F - 1.4 °F 79% 30.15 in 3.0 mi Calm Calm - 0.00 in Snow Light Snow
7:53 PM 7.0 °F - 1.9 °F 80% 30.23 in 4.0 mi Calm Calm - 0.00 in Snow Light Snow
8:05 PM 8.6 °F - 3.2 °F 79% 30.13 in 1.5 mi Calm Calm - 0.00 in   Haze
8:15 PM 8.6 °F - 3.2 °F 79% 30.12 in 3.0 mi Calm Calm - 0.00 in   Haze
8:23 PM 8.6 °F - 3.2 °F 79% 30.12 in 1.8 mi Calm Calm - 0.00 in Snow Light Snow
8:33 PM 8.6 °F - 3.2 °F 79% 30.11 in 3.0 mi Calm Calm - 0.00 in Snow Light Snow
8:43 PM 8.6 °F 2.0 °F 3.2 °F 79% 30.11 in 1.8 mi South 3.5 mph - 0.00 in Snow Light Snow
8:53 PM 8.1 °F 1.4 °F 3.9 °F 83% 30.19 in 2.5 mi South 3.5 mph - 0.00 in Snow Light Snow
9:01 PM 8.6 °F - 3.2 °F 79% 30.10 in 3.0 mi Calm Calm - 0.00 in Snow Light Snow
9:08 PM 8.6 °F - 3.2 °F 79% 30.10 in 1.8 mi Calm Calm - 0.00 in Snow Light Snow
9:21 PM 8.6 °F - 3.2 °F 79% 30.09 in 2.5 mi Calm Calm - 0.00 in Snow Light Snow
9:31 PM 8.6 °F - 3.2 °F 79% 30.08 in 4.0 mi Calm Calm - 0.00 in Snow Light Snow
9:53 PM 9.0 °F 2.4 °F 3.9 °F 80% 30.16 in 3.0 mi SW 3.5 mph - 0.00 in Snow Light Snow
10:39 PM 8.6 °F - 3.2 °F 79% 30.05 in 2.5 mi Calm Calm - 0.00 in Snow Light Snow
10:53 PM 8.1 °F - 3.9 °F 83% 30.13 in 3.0 mi Calm Calm - 0.00 in Snow Light Snow
11:03 PM 6.8 °F -0.1 °F 3.2 °F 85% 30.04 in 2.5 mi SSW 3.5 mph - 0.00 in   Mostly Cloudy
11:07 PM 8.6 °F 2.0 °F 3.2 °F 79% 30.03 in 3.0 mi SSW 3.5 mph - 0.00 in   Haze
11:18 PM 6.8 °F - 1.4 °F 79% 30.02 in 1.8 mi Calm Calm - 0.00 in   Haze
11:42 PM 6.8 °F - 1.4 °F 79% 30.00 in 3.0 mi Calm Calm - 0.00 in   Mostly Cloudy
11:53 PM 6.1 °F - 3.0 °F 87% 30.09 in 10.0 mi Calm Calm - 0.00 in   Overcast